Regional Weather Roundup
Issued by NWS Burlington, VT

Home | Current Version | Previous Version | Text Only | Print | Product List | Glossary On
Versions: 1 2 3 4 5 6 7 8 9 10 11 12 13 14 15 16 17 18 19 20 21 22 23 24 25 26 27 28 29 30 31 32 33 34 35 36 37 38 39 40 41 42 43 44 45 46 47 48 49 50
000
ASUS41 KBTV 240930
RWRBTV
VERMONT REGIONAL WEATHER ROUNDUP
NATIONAL WEATHER SERVICE BURLINGTON VT
500 AM EDT TUE MAY 24 2016

NOTE: "FAIR" INDICATES FEW OR NO CLOUDS BELOW 12,000 FEET WITH NO
SIGNIFICANT WEATHER AND/OR OBSTRUCTIONS TO VISIBILITY.

* THESE REPORTS ARE NOT UNDER NWS QUALITY CONTROL AND/OR DO NOT
  REPORT WEATHER SUCH AS PRECIPITATION AND FOG.

VTZ001>019-241000-
_____VERMONT_____


CITY           SKY/WX    TMP DP  RH WIND       PRES   REMARKS
BURLINGTON     FAIR      51  43  74 NE5       29.90S
MONTPELIER     FAIR      46  40  79 CALM      29.97S
MORRISVILLE    FAIR      40  38  93 CALM      29.95S
ST. JOHNSBURY*   N/A     47  42  83 MISG      29.93S
LYNDONVILLE*   FAIR      48  40  72 CALM      29.96S
MIDDLEBURY*    FAIR      51  44  76 CALM      29.90R
RUTLAND*       CLOUDY    55  50  83 CALM      29.91F
SPRINGFIELD    LGT RAIN  54  50  86 CALM      29.92F
HIGHGATE*      FAIR      48  43  81 CALM      29.91R
NEWPORT*       FAIR      42  40  92 SW5       29.95R
BENNINGTON     FAIR      57  53  86 SE3       29.90S
MT. MANSFIELD*   N/A     55 N/A N/A SW5         N/A

_____LAKE CHAMPLAIN_____


CITY           SKY/WX    TMP DP  RH WIND       PRES   REMARKS
COLCHESTER RF*   N/A     57  48  72 N5          N/A
DIAMOND ISL*     N/A     54  50  87 E2          N/A

$$

NYZ007-026>031-035-052-083-087-241000-
_____NORTHERN NEW YORK_____


CITY           SKY/WX    TMP DP  RH WIND       PRES   REMARKS
PLATTSBURGH    CLOUDY    46  41  82 CALM      29.91R
SARANAC LAKE   CLOUDY    34  31  88 CALM      29.95S
MASSENA        CLEAR     44  42  93 CALM      29.94R FOG
OGDENSBURG*    CLEAR     46  45  93 CALM      29.93R
POTSDAM*       CLEAR     48  46  93 CALM      29.93R
WATERTOWN      PTCLDY    44  41  89 CALM      29.93R
FT DRUM        CLEAR     50  45  81 SE6       29.92R
ALBANY         CLOUDY    60  53  77 SW3       29.88F
GLENS FALLS    CLOUDY    53  44  71 W8        29.89F

$$
NHZ002-005-011-241000-
_____NEW HAMPSHIRE_____


CITY           SKY/WX    TMP DP  RH WIND       PRES   REMARKS
LEBANON        CLOUDY    54  47  77 N3        29.92S
KEENE          CLOUDY    55  52  88 CALM      29.91S
MT WASHINGTON  MOCLDY    45  36  70 E21         N/A
PLYMOUTH       CLOUDY    52  51  95 CALM      29.93F
WHITEFIELD     CLOUDY    46  42  86 CALM      29.95S

$$

_____REGIONAL QUEBEC LOCATIONS_____


CITY           SKY/WX    TMP DP  RH WIND       PRES   REMARKS
MONTREAL       MOCLDY    57  45  62 S3        29.91R
QUEBEC CITY    PTCLDY    52  41  66 N8        29.93R
SHERBROOKE     CLEAR     45  41  87 E5        29.93R

_____REGIONAL ONTARIO LOCATIONS_____


CITY           SKY/WX    TMP DP  RH WIND       PRES   REMARKS
OTTAWA         PTCLDY    52  43  71 W5        29.92S

______KEY______
VSB  - VISIBILITY IN MILES
WCI  - WIND CHILL INDEX
HX   - HEAT INDEX
$$
NNNN



USA.gov is the U.S. government's official web portal to all federal, state and local government web resources and services.